Stations météo

Publicité
Auch, France (7622): Température de l'air & dewpoint: 19.05.2018 13:00:00 - 25.05.2018 13:00:00 (CEST)Auch, France (7622): Température de l'air 5cm: 19.05.2018 13:00:00 - 25.05.2018 13:00:00 (CEST)Auch, France (7622): Température de l'air -20cm & Température de l'air -100cm: 19.05.2018 13:00:00 - 25.05.2018 13:00:00 (CEST)Auch, France (7622): Vitesse du vent & gusts: 19.05.2018 13:00:00 - 25.05.2018 13:00:00 (CEST)Auch, France (7622): Direction du vent: 19.05.2018 13:00:00 - 25.05.2018 13:00:00 (CEST)Auch, France (7622): reduced air pressure: 19.05.2018 13:00:00 - 25.05.2018 13:00:00 (CEST)Auch, France (7622): visibility: 19.05.2018 13:00:00 - 25.05.2018 13:00:00 (CEST)Auch, France (7622): Ensoleillement: 19.05.2018 13:00:00 - 25.05.2018 13:00:00 (CEST)Auch, France (7622): Quantités de précipitations: 19.05.2018 13:00:00 - 25.05.2018 13:00:00 (CEST)
Date & Time tt [°C] td [°C] tt 5cm [°C] tt -20cm [°C] tt -100cm [°C] ff [km/h] ff [knt] fx [km/h] fx [knt] dd ppp [hPa] vv [km] sd [min] rr [mm]
25.05.2018 13:00:00 - - - - - - - - - - - - - -
25.05.2018 12:00:00 17,9 16,1 17,3 19,8 16,2 7 4 13 7 NE 1015,2 9 0 0,0
25.05.2018 11:00:00 17,0 16,0 17,1 19,9 16,2 6 3 22 12 SSW 1016,1 5 0 0,0
25.05.2018 10:00:00 17,2 15,7 17,5 20,0 16,1 8 5 13 7 SW 1015,5 7 0 0,0
25.05.2018 09:00:00 17,5 15,5 17,5 20,0 16,1 5 3 15 8 SSE 1015,2 11 0 0,0
25.05.2018 08:00:00 17,0 15,5 16,1 20,2 16,1 6 3 15 8 SSE 1014,5 8 0 0,0
25.05.2018 07:00:00 15,8 15,3 11,6 20,3 16,1 5 3 18 10 ESE 1014,6 7 5 0,0
25.05.2018 06:00:00 14,0 13,4 11,6 20,4 16,1 0 0 3 2 N 1014,6 7 0 0,0
25.05.2018 05:00:00 14,6 13,6 12,2 20,6 16,1 0 0 7 4 N 1014,6 8 0 0,0
25.05.2018 04:00:00 15,9 14,8 13,4 20,6 16,1 5 3 7 4 NNE 1014,6 10 0 0,0
25.05.2018 03:00:00 17,2 14,8 14,4 20,7 16,1 4 2 10 5 ESE 1014,7 14 0 0,0
25.05.2018 02:00:00 17,8 14,9 14,9 20,8 16,0 3 2 12 7 E 1015,2 19 0 0,0
25.05.2018 01:00:00 17,4 15,4 15,3 20,9 16,1 3 2 11 6 SSE 1015,2 6 0 0,0
25.05.2018 00:00:00 17,7 16,6 16,1 20,9 16,0 2 1 4 2 WNW 1015,4 16 0 0,0
24.05.2018 23:00:00 18,4 16,6 16,5 20,9 16,0 2 1 5 3 S 1015,7 20 0 0,0
24.05.2018 22:00:00 19,9 17,1 16,8 20,9 16,0 0 0 3 2 N 1015,2 18 0 0,0
24.05.2018 21:00:00 22,1 16,8 20,6 20,8 16,0 2 1 6 3 ENE 1014,5 19 0 0,0
24.05.2018 20:00:00 23,9 16,9 23,7 20,6 16,0 3 2 10 6 ESE 1014,3 20 0 0,0
24.05.2018 19:00:00 25,2 14,9 27,5 20,4 16,0 7 4 13 7 E 1014,1 20 50 0,0
24.05.2018 18:00:00 25,6 14,7 30,7 20,2 16,0 8 4 16 9 ESE 1014,7 20 58 0,0
24.05.2018 17:00:00 25,6 14,4 31,6 19,9 16,0 5 3 21 12 E 1014,6 18 60 0,0
24.05.2018 16:00:00 24,7 15,6 28,4 19,7 15,9 8 4 17 9 ENE 1015,1 20 51 0,0
24.05.2018 15:00:00 23,7 15,5 29,7 19,7 15,9 9 5 19 10 NNE 1015,8 20 51 0,0
24.05.2018 14:00:00 22,4 16,2 24,9 19,7 16,0 12 6 18 10 N 1016,1 20 29 0,0
24.05.2018 13:00:00 19,6 15,5 19,8 19,6 15,9 3 2 8 5 ESE 1016,8 20 0 0,0
24.05.2018 12:00:00 18,4 16,0 18,2 19,7 15,9 0 0 10 6 N 1017,2 20 0 0,4
24.05.2018 11:00:00 17,2 15,4 17,5 19,8 15,9 6 4 9 5 N 1017,3 20 0 0,0
24.05.2018 10:00:00 16,8 15,0 16,9 19,9 15,9 3 2 8 4 WNW 1017,4 20 0 0,0
24.05.2018 09:00:00 15,9 14,6 15,5 20,0 15,9 0 0 9 5 N 1016,8 20 0 0,0
24.05.2018 08:00:00 15,2 14,1 14,2 20,1 15,9 4 2 10 6 SSE 1016,6 20 18 0,0
24.05.2018 07:00:00 13,8 13,5 11,4 20,2 15,9 2 1 8 4 S 1016,6 20 12 0,0
24.05.2018 06:00:00 12,5 12,0 10,6 20,4 15,9 3 2 5 3 SW 1016,3 16 0 0,0
24.05.2018 05:00:00 13,2 12,6 10,9 20,5 15,8 0 0 5 3 N 1016,5 20 0 0,0
24.05.2018 04:00:00 13,9 13,3 11,7 20,6 15,8 0 0 5 3 N 1016,4 20 0 0,0
24.05.2018 03:00:00 14,5 13,5 12,3 20,7 15,8 2 1 5 3 SE 1016,6 20 0 0,0
24.05.2018 02:00:00 15,4 13,6 13,3 20,8 15,8 3 2 5 3 SSW 1016,7 20 0 0,0
24.05.2018 01:00:00 16,9 14,4 15,5 20,8 15,8 2 1 4 2 ENE 1016,8 20 0 0,0
24.05.2018 00:00:00 17,5 14,6 15,6 20,9 15,8 2 1 5 3 N 1017,0 20 0 0,0
23.05.2018 23:00:00 18,4 14,3 16,5 20,9 15,8 4 2 11 6 SSE 1016,9 20 0 0,0
23.05.2018 22:00:00 19,3 14,3 18,1 20,9 15,7 12 6 21 12 S 1016,5 20 0 0,0
23.05.2018 21:00:00 20,5 13,7 19,6 20,8 15,7 13 7 20 11 SSW 1016,0 20 0 0,0
23.05.2018 20:00:00 21,9 14,8 21,7 20,6 15,7 11 6 27 15 S 1015,6 20 23 0,0
23.05.2018 19:00:00 24,9 10,7 26,4 20,4 15,7 3 2 11 6 NW 1015,3 20 23 0,0
23.05.2018 18:00:00 26,3 11,6 28,3 20,1 15,7 6 3 15 8 W 1015,3 20 41 0,0
23.05.2018 17:00:00 25,6 12,1 31,1 19,8 15,7 6 4 17 9 NNW 1015,2 20 57 0,0
23.05.2018 16:00:00 25,7 12,5 32,0 19,6 15,7 5 3 15 8 S 1015,5 20 60 0,0
23.05.2018 15:00:00 24,4 12,7 30,5 19,3 15,6 6 4 16 8 ENE 1016,3 20 60 0,0
23.05.2018 14:00:00 23,9 13,1 30,6 19,2 15,6 8 4 16 8 NNE 1017,0 19 60 0,0
23.05.2018 13:00:00 23,1 13,3 29,5 19,1 15,6 3 1 14 8 N 1017,5 19 60 0,0
23.05.2018 12:00:00 22,0 14,1 28,3 19,1 15,6 4 2 12 6 SSW 1017,8 19 60 0,0
23.05.2018 11:00:00 20,2 14,8 24,4 19,1 15,6 2 1 14 8 E 1018,0 15 60 0,0
23.05.2018 10:00:00 17,8 14,7 18,8 19,2 15,6 3 2 11 6 NW 1018,2 12 27 0,0
23.05.2018 09:00:00 16,4 14,4 16,9 19,3 15,6 7 4 12 6 WNW 1018,2 11 52 0,0
23.05.2018 08:00:00 14,6 13,5 11,0 19,5 15,6 3 1 10 5 S 1017,8 20 46 0,0
23.05.2018 07:00:00 12,3 11,8 9,9 19,6 15,6 3 2 8 5 SSW 1017,3 16 0 0,0
23.05.2018 06:00:00 13,1 12,2 10,7 19,7 15,6 2 1 11 6 S 1016,7 20 0 0,0
23.05.2018 05:00:00 14,0 12,7 12,8 19,8 15,6 5 3 12 7 SSW 1016,7 20 0 0,0
23.05.2018 04:00:00 14,0 12,7 12,6 19,9 15,6 8 4 11 6 SSW 1016,9 20 0 0,0
23.05.2018 03:00:00 13,9 12,6 12,2 20,0 15,6 6 3 9 5 SSW 1017,1 20 0 0,0
23.05.2018 02:00:00 14,0 12,6 12,0 20,2 15,5 2 1 14 8 S 1017,2 20 0 0,0
23.05.2018 01:00:00 13,9 12,5 11,1 20,2 15,5 9 5 14 7 S 1017,3 20 0 0,0
23.05.2018 00:00:00 14,1 12,5 11,3 20,3 15,5 0 0 4 2 N 1016,9 20 0 0,0
22.05.2018 23:00:00 15,6 12,5 12,6 20,4 15,5 4 2 5 3 SSW 1016,6 20 0 0,0
22.05.2018 22:00:00 18,0 12,0 14,7 20,4 15,5 4 2 10 5 N 1015,8 20 0 0,0
22.05.2018 21:00:00 20,0 12,0 18,3 20,3 15,5 8 4 16 8 NW 1015,2 20 5 0,0
22.05.2018 20:00:00 21,8 12,6 22,4 20,1 15,5 10 5 18 10 NNW 1014,5 20 36 0,0
22.05.2018 19:00:00 22,3 13,1 23,5 19,9 15,4 13 7 21 11 NW 1014,1 20 27 0,0
22.05.2018 18:00:00 23,9 12,2 26,3 19,7 15,5 6 4 20 11 NNW 1013,8 20 43 0,0
22.05.2018 17:00:00 23,3 12,0 26,5 19,5 15,5 5 3 16 9 NW 1013,5 20 47 0,0
22.05.2018 16:00:00 24,0 14,1 26,9 19,2 15,4 4 2 12 6 W 1013,8 18 54 0,0
22.05.2018 15:00:00 23,1 14,1 28,0 19,0 15,4 3 2 14 8 NNW 1014,4 20 60 0,0
22.05.2018 14:00:00 21,3 14,2 27,3 18,9 15,4 9 5 17 9 NW 1014,8 19 53 0,0
22.05.2018 13:00:00 20,3 14,2 26,0 18,9 15,4 9 5 21 11 W 1015,1 19 53 0,0
22.05.2018 12:00:00 19,5 14,7 22,8 18,9 15,4 9 5 20 11 W 1015,1 19 43 0,0
22.05.2018 11:00:00 18,6 13,7 21,5 18,9 15,4 7 4 17 9 W 1015,1 18 46 0,0
22.05.2018 10:00:00 17,3 13,4 18,3 19,0 15,4 6 4 16 8 SW 1014,9 19 41 0,0
22.05.2018 09:00:00 14,8 14,2 13,3 19,1 15,4 0 0 11 6 N 1015,0 10 14 0,0
22.05.2018 08:00:00 12,6 12,1 10,3 19,3 15,4 0 0 5 3 N 1014,6 20 4 0,0
22.05.2018 07:00:00 12,3 11,5 9,7 19,4 15,4 0 0 3 2 N 1013,9 20 0 0,0
22.05.2018 06:00:00 13,3 12,2 10,6 19,5 15,3 0 0 5 3 N 1013,2 20 0 0,0
22.05.2018 05:00:00 14,2 12,8 13,0 19,6 15,3 3 2 5 3 SSW 1013,0 20 0 0,0
22.05.2018 04:00:00 14,6 12,8 13,5 19,7 15,3 5 3 7 4 SSW 1013,0 20 0 0,0
22.05.2018 03:00:00 15,4 12,7 14,0 19,8 15,3 0 0 13 7 N 1013,2 20 0 0,0
22.05.2018 02:00:00 15,2 12,7 14,0 19,9 15,3 0 0 8 5 N 1012,8 20 0 0,0
22.05.2018 01:00:00 16,1 12,6 14,3 19,9 15,3 5 3 10 5 ESE 1013,0 19 0 0,0
22.05.2018 00:00:00 16,8 12,1 14,6 20,0 15,3 5 3 18 10 E 1013,4 20 0 0,0
21.05.2018 23:00:00 17,3 11,6 16,0 20,0 15,3 13 7 26 14 NNW 1012,9 20 0 0,0
21.05.2018 22:00:00 18,3 10,9 16,4 20,0 15,3 12 6 18 10 N 1011,8 20 0 0,0
21.05.2018 21:00:00 19,5 12,7 17,9 19,9 15,2 9 5 22 12 SSW 1010,4 20 0 0,0
21.05.2018 20:00:00 22,9 13,1 22,4 19,7 15,2 5 3 10 5 WSW 1009,5 20 0 0,0
21.05.2018 19:00:00 23,5 12,5 23,9 19,5 15,2 6 4 16 9 SSE 1009,2 20 5 0,0
21.05.2018 18:00:00 24,9 10,7 28,7 19,2 15,3 9 5 21 11 E 1009,0 19 60 0,0
21.05.2018 17:00:00 25,1 11,6 30,1 18,9 15,2 11 6 22 12 E 1008,8 20 60 0,0
21.05.2018 16:00:00 24,6 10,8 30,3 18,6 15,2 13 7 24 13 ESE 1009,6 17 60 0,0
21.05.2018 15:00:00 24,2 11,2 30,3 18,3 15,2 13 7 27 15 ESE 1010,0 19 60 0,0
21.05.2018 14:00:00 23,6 11,6 29,9 18,2 15,2 11 6 22 12 E 1010,8 20 60 0,0
21.05.2018 13:00:00 22,9 13,4 28,5 18,1 15,2 10 5 23 12 ESE 1011,3 20 60 0,0
21.05.2018 12:00:00 22,1 13,4 26,9 18,0 15,2 10 5 21 12 ESE 1011,7 20 60 0,0
21.05.2018 11:00:00 21,3 13,5 23,9 18,1 15,2 10 6 19 11 ESE 1011,8 19 60 0,0
21.05.2018 10:00:00 19,6 13,5 20,4 18,1 15,2 8 5 18 10 SE 1012,1 20 60 0,0
21.05.2018 09:00:00 16,4 12,7 15,7 18,2 15,2 3 2 9 5 S 1012,4 20 60 0,0
21.05.2018 08:00:00 13,2 12,7 9,6 18,3 15,2 3 1 4 2 SSW 1012,7 20 47 0,0
21.05.2018 07:00:00 11,4 10,9 9,0 18,5 15,2 0 0 4 2 N 1012,7 15 0 0,0
21.05.2018 06:00:00 12,1 11,3 10,1 18,6 15,2 0 0 4 2 N 1012,7 14 0 0,0
21.05.2018 05:00:00 12,7 11,9 11,3 18,7 15,1 0 0 6 3 N 1012,5 20 0 0,0
21.05.2018 04:00:00 13,0 12,1 11,9 18,8 15,1 4 2 7 4 SSW 1012,6 20 0 0,0
21.05.2018 03:00:00 13,0 11,9 11,1 18,9 15,2 3 1 9 5 SSW 1012,7 20 0 0,0
21.05.2018 02:00:00 12,1 11,3 10,0 19,0 15,1 0 0 5 3 N 1013,2 20 0 0,0
21.05.2018 01:00:00 12,6 11,2 10,1 19,0 15,1 3 1 8 4 WSW 1013,7 20 0 0,0
21.05.2018 00:00:00 14,3 11,6 11,0 19,1 15,1 4 2 12 6 SSE 1014,0 20 0 0,0
20.05.2018 23:00:00 15,3 11,7 11,3 19,1 15,1 4 2 9 5 S 1013,9 20 0 0,0
20.05.2018 22:00:00 16,4 12,0 13,9 19,0 15,1 9 5 29 16 S 1013,5 20 0 0,0
20.05.2018 21:00:00 19,7 12,2 18,3 18,9 15,1 16 9 32 17 S 1012,9 20 37 0,0
20.05.2018 20:00:00 23,0 10,4 25,4 18,7 15,1 5 3 9 5 SE 1012,5 17 60 0,0
20.05.2018 19:00:00 23,8 10,8 28,8 18,3 15,1 6 3 14 8 N 1012,4 20 60 0,0
20.05.2018 18:00:00 23,9 10,9 29,6 18,1 15,1 5 3 16 9 ESE 1012,8 20 60 0,0
20.05.2018 17:00:00 23,5 11,5 29,3 17,8 15,1 7 4 19 10 N 1013,1 20 60 0,0
20.05.2018 16:00:00 23,0 11,7 29,8 17,5 15,1 10 6 18 10 N 1014,2 20 60 0,0
20.05.2018 15:00:00 22,3 12,3 29,5 17,4 15,1 6 3 16 9 NW 1015,0 20 60 0,0
20.05.2018 14:00:00 21,2 12,9 28,6 17,2 15,1 8 4 15 8 N 1015,7 17 60 0,0
20.05.2018 13:00:00 20,5 13,5 27,4 17,1 15,0 3 2 15 8 NE 1016,4 19 60 0,0
20.05.2018 12:00:00 18,5 13,4 21,3 17,1 15,0 7 4 14 8 WNW 1017,1 18 48 0,0
20.05.2018 11:00:00 16,5 12,8 16,6 17,2 15,0 7 4 17 9 WSW 1017,5 17 19 0,0
20.05.2018 10:00:00 14,4 12,3 14,7 17,3 15,0 7 4 18 10 SW 1017,9 13 0 0,0
20.05.2018 09:00:00 13,3 12,0 13,3 17,3 15,0 6 3 16 8 WSW 1017,9 9 0 0,0
20.05.2018 08:00:00 12,6 11,8 11,8 17,5 15,0 4 2 17 9 W 1017,5 7 0 0,0
20.05.2018 07:00:00 11,8 11,5 7,9 17,6 15,0 8 4 16 9 WSW 1017,2 12 0 0,2
20.05.2018 06:00:00 10,8 10,0 8,7 17,7 15,0 5 3 9 5 S 1017,0 14 0 0,0
20.05.2018 05:00:00 11,3 10,4 9,5 17,8 15,0 8 4 10 6 S 1016,9 15 0 0,0
20.05.2018 04:00:00 12,0 10,9 9,1 17,9 15,0 7 4 10 6 S 1017,2 11 0 0,0
20.05.2018 03:00:00 12,7 11,1 9,9 18,0 15,0 6 4 10 6 S 1017,6 20 0 0,0
20.05.2018 02:00:00 14,1 11,4 10,9 18,0 15,0 5 3 14 7 S 1017,9 20 0 0,0
20.05.2018 01:00:00 14,8 12,1 12,9 18,1 15,0 9 5 13 7 S 1017,7 20 0 0,0
20.05.2018 00:00:00 15,0 13,2 11,6 18,1 15,0 3 2 10 6 W 1017,6 20 0 0,0
19.05.2018 23:00:00 15,0 12,9 11,6 18,1 15,0 0 0 4 2 N 1017,4 20 0 0,0
19.05.2018 22:00:00 16,5 12,6 13,8 18,0 15,0 2 1 8 5 SW 1016,9 20 0 0,0
19.05.2018 21:00:00 17,5 11,5 15,9 17,9 15,0 3 1 14 8 SE 1016,7 20 0 0,0
19.05.2018 20:00:00 18,9 13,1 18,7 17,8 15,0 10 5 20 11 NNW 1016,4 20 0 0,0
19.05.2018 19:00:00 19,7 13,6 17,1 17,6 15,0 7 4 21 12 SW 1016,0 20 10 0,0
19.05.2018 18:00:00 23,8 13,6 25,6 17,3 14,9 10 5 19 11 W 1015,8 20 50 0,0
19.05.2018 17:00:00 23,0 13,5 25,0 17,2 15,0 7 4 16 9 NW 1016,4 20 26 0,0
19.05.2018 16:00:00 22,5 13,3 25,1 17,0 14,9 8 4 17 9 WNW 1017,0 20 34 0,0
19.05.2018 15:00:00 22,1 13,4 23,3 16,9 15,0 8 4 18 10 WNW 1017,7 20 33 0,0
19.05.2018 14:00:00 20,9 13,3 24,3 16,7 14,9 6 4 19 10 WNW 1018,1 19 40 0,0
19.05.2018 13:00:00 19,1 13,7 23,0 16,7 14,9 6 4 18 10 WSW 1018,7 19 36 0,0

tt = Température de l'air
td = dewpoint
tt 5cm = Température de l'air 5cm
tt -20cm = Température de l'air -20cm
tt -100cm = Température de l'air -100cm
ff = Vitesse du vent
fx = gusts
dd = Direction du vent
ppp = reduced air pressure
vv = visibility
sd = Ensoleillement
rr = Quantités de précipitations

stations d'obs. à proximité